Location: Simi Valley
(34.2690°N, 118.7810°W)
Time: 01:02:09
(UTC-08:00)

SAR-Lupe-1 - Visible Passes

Search period start: 25 February 2017 00:00
Search period end: 07 March 2017 00:00
Orbit: 481 x 485 km, 98.2° (Epoch: 03 October)

Date Brightness Start Highest point End Pass type
(mag) Time Alt. Az. Time Alt. Az. Time Alt. Az.
25 Feb 5.9 19:09:40 18° NNE 19:09:40 18° NNE 19:10:54 10° NNE visible
26 Feb 6.2 18:44:23 12° NE 18:44:23 12° NE 18:44:55 10° NE visible
26 Feb 7.0 20:18:42 13° NW 20:18:42 13° NW 20:19:16 10° NW visible
27 Feb 6.2 19:53:25 21° NNW 19:53:25 21° NNW 19:54:46 10° NNW visible
28 Feb 5.6 19:28:09 25° NNE 19:28:09 25° NNE 19:29:49 10° N visible
01 Mar 5.8 19:02:53 18° NE 19:02:53 18° NE 19:04:24 10° NNE visible
02 Mar 6.3 18:37:37 10° NE 18:37:37 10° NE 18:37:40 10° NE visible
02 Mar 6.6 20:11:55 19° NW 20:11:55 19° NW 20:13:10 10° NNW visible
03 Mar 5.6 19:46:40 29° NNW 19:46:40 29° NNW 19:48:31 10° NNW visible
04 Mar 5.3 19:21:24 27° NNE 19:21:24 27° NNE 19:23:26 10° N visible
05 Mar 5.8 18:56:08 16° NE 18:56:08 16° NE 18:57:48 10° NNE visible
05 Mar 7.1 20:30:28 14° NW 20:30:28 14° NW 20:31:18 10° NW visible
06 Mar 6.0 20:05:12 26° NW 20:05:12 26° NW 20:07:01 10° NNW visible
